Regional Weather Roundup
Issued by NWS Columbia, SC

Home | Current Version | Previous Version | Text Only | Print | Product List | Glossary On
Versions: 1 2 3 4 5 6 7 8 9 10 11 12 13 14 15 16 17 18 19 20 21 22 23 24 25 26 27 28 29 30 31 32 33 34 35 36 37 38 39 40 41 42 43 44 45 46 47 48 49 50
000
ASUS42 KCAE 281910
RWRCAE
REGIONAL WEATHER ROUNDUP
NATIONAL WEATHER SERVICE COLUMBIA SC
200 PM EST SAT FEB 28 2015

NOTE: "FAIR" INDICATES FEW OR NO CLOUDS BELOW 12,000 FEET WITH NO
SIGNIFICANT WEATHER AND/OR OBSTRUCTIONS TO VISIBILITY.

NOT ALL STATIONS ARE QUALITY CONTROLLED BY THE NATIONAL
WEATHER SERVICE. USE DATA WITH CAUTION...ESPECIALLY
DEWPOINT OBSERVATIONS.

SCZ001>056-GAZ040-063>065-077-282000-
...UPSTATE SOUTH CAROLINA...

CITY           SKY/WX    TMP DP  RH WIND       PRES   REMARKS
ANDERSON       PTSUNNY   46  20  35 E9        30.59F
LIBERTY        CLOUDY    44  18  36 MISG      30.59F
SPARTANBURG    PTSUNNY   43  21  42 NE7       30.62F
CLEMSON        CLOUDY    45  16  31 E9        30.60F
GREENVILLE     CLOUDY    41  18  39 NE12      30.61F
GREENWOOD      FAIR      47  24  40 NE8G18    30.61F
GREER          CLOUDY    40  20  44 NE9       30.61F WCI  34
ROCK HILL      PTSUNNY   42  20  41 NE9       30.65F
CHESTER        PTCLDY    45  23  42 NE9       30.64F
LAURENS        PTCLDY    43  32  65 E8        30.62F


...CENTRAL SOUTH CAROLINA...

CITY           SKY/WX    TMP DP  RH WIND       PRES   REMARKS
COLUMBIA APT   MOSUNNY   50  27  40 NE12G18   30.61F
COLUMBIA OWENS SUNNY     50  26  39 VRB6      30.63F
DARLINGTON     MOSUNNY   48  27  43 NE12G20   30.66F
FLORENCE       SUNNY     49  24  37 NE13G30   30.64F
MCENTIRE ANGB  MOSUNNY   56  25  30 NE10      30.61F
ORANGEBURG     MOSUNNY   52  28  39 NE13      30.59F
SUMTER SHAW    SUNNY     50  26  38 NE14      30.60F
NEWBERRY       PTCLDY    45  27  49 N12       30.64F
AIKEN          FAIR      50  30  46 NE15G21   30.61F
BARNWELL       MOCLDY    54  32  43 NE14      30.56F
MANNING        FAIR      54  27  35 NE13G20   30.59F
CAMDEN         FAIR      48  23  37 NE14        N/A
LANCASTER      MOCLDY    45  19  36 NE6       30.65F
WINNSBORO      CLEAR     46  27  46 N8        30.62F


...EASTERN AND COASTAL SOUTH CAROLINA...

CITY           SKY/WX    TMP DP  RH WIND       PRES   REMARKS
MYRTLE BEACH   MOSUNNY   52  27  37 NE14      30.62F
N MYRTLE BCH   PTSUNNY   50  25  37 NE13G22   30.60F
CONWAY         FAIR      50  30  46 N12G17    30.62S HAZE
MARION         FAIR      48  25  40 N12       30.65F
HARTSVILLE     FAIR      50  23  34 NE12      30.63F
FLORENCE       SUNNY     49  24  37 NE13G30   30.64F
DARLINGTON     MOSUNNY   48  27  43 NE12G20   30.66F
CHARLESTON APT CLOUDY    51  26  37 NE13      30.57F
MOUNT PLEASANT CLOUDY    48  25  40 NE6G17    30.57F
WALTERBORO     CLOUDY    54  30  40 NE9G20    30.56F
BEAUFORT       CLOUDY    50  32  50 NE9       30.55F


...EASTERN GEORGIA...

CITY           SKY/WX    TMP DP  RH WIND       PRES   REMARKS
AUGUSTA BUSH F PTSUNNY   54  28  36 NE8       30.57F
AUGUSTA DANIEL MOSUNNY   53  28  38 NE13      30.57F
THOMSON        SUNNY     51  34  51 NE5G16    30.62F
WASHINGTON     FAIR      54  34  47 NE10      30.56F
CLAXTON        CLOUDY    45  37  76 NE8G16    30.54F
SYLVANIA       CLOUDY    50  36  58 E7        30.55F
STATESBORO     RAIN      48  36  61 E6        30.54F
SAVANNAH       LGT RAIN  46  36  68 NE10      30.54F


...SOUTHERN NORTH CAROLINA...

CITY           SKY/WX    TMP DP  RH WIND       PRES   REMARKS
CHARLOTTE      CLOUDY    40  17  39 NE6       30.66F
MONROE         PTSUNNY   41  22  46 NE8       30.64F
WADESBORO      PTCLDY    44  20  38 N6        30.67F
ROCKINGHAM       N/A     44  20  38 N6        30.66F
RUTHERFORDTON  PTSUNNY   41  18  38 NE3       30.63F
ASHEVILLE      PTSUNNY   36  17  46 S9        30.56F WCI  29

$$


USA.gov is the U.S. government's official web portal to all federal, state and local government web resources and services.